Weather History for Key West NAF, FL

Change the Weather History Date:

Thursday, February 28, 2013

  Actual Average Record
Temperature  
Mean Temperature 68 °F -  
Max Temperature 73 °F 76 °F 83 °F (1962)
Min Temperature 62 °F 66 °F 54 °F (2002)
Cooling Degree Days 2    
Growing Degree Days 18 (Base 50)    
Moisture  
Dew Point 59 °F    
Average Humidity 68    
Maximum Humidity 84    
Minimum Humidity 47    
Precipitation  
Precipitation 0.00 in - - ()
Sea Level Pressure  
Sea Level Pressure 29.97 in    
Wind  
Wind Speed 10 mph (North)    
Max Wind Speed 15 mph    
Max Gust Speed -    
Visibility 10 miles    
Events Rain    
Averages and records for this station are not official NWS values.
T = Trace of Precipitation, MM = Missing Value Source: NWS Daily Summary

Daily Weather History Graph

Daily Weather History Graph

Search for Another Location

Airport:

Trip Planner

Search our weather history database for the weather conditions in past years. The results will help you decide how hot, cold, wet, or windy it might be!

Date:

Astronomy

Feb. 28, 2013 Rise Set
Actual Time 6:49 AM EST 6:28 PM EST
Civil Twilight 6:27 AM EST 6:51 PM EST
Nautical Twilight 6:00 AM EST 7:18 PM EST
Astronomical Twilight 5:34 AM EST 7:44 PM EST
Moon 9:25 PM EST (2/28) 8:23 AM EST (2/28)
Length of Visible Light 12h 24m
Length of Day
11h 38m
Waning Gibbous, 91% of the Moon is Illuminated
Feb 28
Waning Gibbous
Mar 4
Last Quarter
Mar 11
New
Mar 19
First Quarter
Mar 27
Full

Hourly Weather History & Observations

Time (EST) Temp. Dew Point Humidity Pressure Visibility Wind Dir Wind Speed Gust Speed Precip Events Conditions
12:53 AM 71.1 °F 50.0 °F 47% 29.97 in 10.0 mi North 9.2 mph - N/A   Overcast
1:03 AM 71.6 °F 66.2 °F 83% 29.97 in 10.0 mi North 8.1 mph - N/A   Overcast
1:53 AM 70.0 °F 64.9 °F 84% 29.96 in 10.0 mi North 15.0 mph - 0.00 in   Overcast
2:53 AM 70.0 °F 64.0 °F 81% 29.94 in 10.0 mi North 8.1 mph - N/A   Overcast
3:53 AM 71.1 °F 64.9 °F 81% 29.93 in 10.0 mi North 6.9 mph - N/A   Mostly Cloudy
4:53 AM 71.1 °F 64.9 °F 81% 29.95 in 10.0 mi North 11.5 mph - N/A   Mostly Cloudy
5:53 AM 70.0 °F 64.0 °F 81% 29.95 in 10.0 mi North 10.4 mph - N/A   Overcast
6:16 AM 69.8 °F 64.4 °F 83% 29.96 in 10.0 mi North 15.0 mph - N/A   Mostly Cloudy
6:53 AM 70.0 °F 63.0 °F 78% 29.97 in 10.0 mi North 15.0 mph - N/A   Mostly Cloudy
7:53 AM 70.0 °F 62.1 °F 76% 29.98 in 10.0 mi North 12.7 mph - N/A   Mostly Cloudy
8:53 AM 72.0 °F 62.1 °F 71% 29.99 in 10.0 mi NNE 11.5 mph - N/A   Mostly Cloudy
9:53 AM 71.1 °F 61.0 °F 70% 30.01 in 10.0 mi NNE 11.5 mph - N/A   Mostly Cloudy
10:53 AM 73.0 °F 62.1 °F 68% 30.01 in 10.0 mi NNE 15.0 mph - N/A   Mostly Cloudy
11:53 AM 71.1 °F 60.1 °F 68% 30.01 in 10.0 mi NNE 11.5 mph - N/A   Mostly Cloudy
12:53 PM 71.1 °F 57.9 °F 63% 29.99 in 10.0 mi North 13.8 mph - N/A   Overcast
1:53 PM 71.1 °F 55.9 °F 59% 29.97 in 10.0 mi NNE 9.2 mph - N/A   Mostly Cloudy
2:53 PM 71.1 °F 52.0 °F 51% 29.96 in 10.0 mi NNE 8.1 mph - N/A   Overcast
3:53 PM 71.6 °F 53.6 °F 53% 29.95 in 10.0 mi North 9.2 mph - N/A   Overcast
4:53 PM 69.8 °F 53.6 °F 56% 29.96 in 10.0 mi North 8.1 mph - N/A   Overcast
5:53 PM 68.0 °F 53.6 °F 60% 29.96 in 10.0 mi North 11.5 mph - N/A   Overcast
6:24 PM 66.2 °F 55.4 °F 68% 29.97 in 2.5 mi North 11.5 mph - N/A Rain Light Rain
6:37 PM - - N/A% 29.98 in - North - - N/A   Unknown
6:53 PM 62.6 °F 51.8 °F 68% 29.97 in 7.0 mi West 3.5 mph - N/A Rain Light Rain
7:08 PM 62.6 °F 51.8 °F 68% 29.97 in 10.0 mi Variable 3.5 mph - N/A   Overcast
8:53 PM 66.0 °F 54.0 °F 65% 29.97 in 10.0 mi North 6.9 mph - N/A   Overcast
10:53 PM 69.1 °F 52.0 °F 54% 29.99 in 10.0 mi North 9.2 mph - N/A   Overcast
11:53 PM 69.1 °F 55.9 °F 63% 29.98 in 10.0 mi NNE 4.6 mph - N/A   Overcast